Effective Sunday, March 17, 2024, the National Weather Service National Data Buoy Center will discontinue its Dial-A-Buoy Interactive Voice Response system. For more information, see Service Change Notice 24-06 (PDF).

Station RCMC1 - 9414863 - Richmond, CA Image indicating link to RSS feed of recent meteorological observations for station RCMC1


Conditions at RCMC1 as of
(5:48 am PST)
1348 GMT on 03/04/2024:
     

Click on the graph icon in the table below to see a time series plot of the last five days of that observation.

5-day plot - Wind Direction Wind Direction (WDIR): SE ( 140 deg true )
5-day plot - Wind Speed Wind Speed (WSPD): 5.1 kts
5-day plot - Wind Gust Wind Gust (GST): 8.0 kts
5-day plot - Atmospheric Pressure Atmospheric Pressure (PRES):30.11 in
5-day plot - Air Temperature Air Temperature (ATMP): 48.9 °F
5-day plot - Water Temperature Water Temperature (WTMP): 55.8 °F
5-day plot - Wind Chill Wind Chill (CHILL): 46.4 °F
5-day plot - Wind Speed at 10 Meters Wind Speed at 10 meters (WSPD10M): 5.8 kts
5-day plot - Wind Speed at 20 Meters Wind Speed at 20 meters (WSPD20M): 5.8 kts
5-day plot -  Wind Speed, Wind Gust and Atmospheric Pressure Combined plot of Wind Speed, Gust, and Air Pressure
NOS Water Level Observation Network Water Level
Previous observations
TIME
(PST)
5-day plot - Wind Direction
WDIR
 
5-day plot - Wind Speed
WSPD
kts
5-day plot - Wind Gust
GST
kts
5-day plot - Wave Height
WVHT
ft
5-day plot - Dominant Wave Period
DPD
sec
5-day plot - Average Wave Period
APD
sec
5-day plot - Mean Wave Direction
MWD
 
5-day plot - Atmospheric Pressure
PRES
in
5-day plot - Pressure Tendency
PTDY
in
5-day plot - Air Temperature
ATMP
°F
5-day plot - Water Temperature
WTMP
°F
5-day plot - Dew Point
DEWP
°F
5-day plot - Salinity
SAL
psu
5-day plot - Visibility
VIS
nmi
5-day plot - Tide (above MLLW)
TIDE
ft
2024-03-04 05:42 amSSE 6.0 9.9----30.11- 49.1 55.8----
2024-03-04 05:36 amSSE 5.1 8.9----30.11- 48.7 55.8----
2024-03-04 05:30 am SE 4.1 8.9----30.11- 48.7 55.8----
2024-03-04 05:24 amSSE 6.0 8.9----30.11- 48.7 55.8----
2024-03-04 05:18 amSSE 6.0 9.9----30.11- 48.7 55.8----
2024-03-04 05:12 amSSE 7.0 12.0----30.11- 48.7 55.8----
2024-03-04 05:06 amSSE 6.0 8.9----30.10- 48.9 55.8----
2024-03-04 05:00 amSSE 6.0 9.9----30.10+0.00 49.1 55.8----
2024-03-04 04:54 amSSE 6.0 9.9----30.11- 49.1 55.8----
2024-03-04 04:48 amSSE 4.1 8.0----30.10- 49.1 55.8----
2024-03-04 04:42 am SE 4.1 7.0----30.10- 48.9 55.6----
2024-03-04 04:36 am SE 5.1 8.0----30.10- 48.7 55.6----
2024-03-04 04:30 am SE 6.0 9.9----30.10- 48.6 55.6----
2024-03-04 04:24 am SE 5.1 7.0----30.10- 48.6 55.6----
2024-03-04 04:18 amSSE 5.1 7.0----30.10- 48.7 55.6----
2024-03-04 04:12 am SE 5.1 8.0----30.10- 48.7 55.6----
2024-03-04 04:06 am SE 5.1 8.0----30.09- 48.9 55.2----
2024-03-04 04:00 am SE 4.1 7.0----30.09+0.00 48.9 55.2----
2024-03-04 03:54 am SE 4.1 6.0----30.09- 48.9 55.2----
2024-03-04 03:48 am SE 4.1 8.0----30.09- 48.6 55.2----
2024-03-04 03:42 am SE 2.9 7.0----30.09- 48.7 55.2----
2024-03-04 03:36 am SE 4.1 6.0----30.09- 49.1 55.2----
2024-03-04 03:30 am SE 4.1 6.0----30.09- 49.3 55.2----
2024-03-04 03:24 amSSE 4.1 6.0----30.09- 49.3 55.2----
2024-03-04 03:18 amSSE 6.0 7.0----30.09- 49.1 55.2----
2024-03-04 03:12 amSSE 5.1 8.0----30.09- 48.9 55.2----
2024-03-04 03:06 amSSE 6.0 8.0----30.09- 48.9 55.0----
2024-03-04 03:00 am S 2.9 6.0----30.10+0.00 49.1 55.0----
2024-03-04 02:54 amSSE 4.1 6.0----30.10- 48.9 55.0----
2024-03-04 02:48 amSSE 2.9 5.1----30.10- 48.9 55.0----
2024-03-04 02:42 amSSE 4.1 6.0----30.10- 48.7 55.0----
2024-03-04 02:36 amSSE 5.1 6.0----30.10- 48.4 55.2----
2024-03-04 02:30 amSSE 6.0 7.0----30.10- 48.2 55.2----
2024-03-04 02:24 amSSE 6.0 8.0----30.10- 48.2 55.2----
2024-03-04 02:18 amSSE 7.0 8.0----30.10- 48.2 55.2----
2024-03-04 02:12 amSSE 6.0 7.0----30.11- 48.6 55.2----
2024-03-04 02:06 amSSE 5.1 7.0----30.11- 48.9 55.2----
2024-03-04 02:00 am S 1.9 5.1----30.11+0.02 49.3 55.2----
2024-03-04 01:54 am S 2.9 6.0----30.11- 49.3 55.2----
2024-03-04 01:48 am S 1.9 5.1----30.11- 49.3 55.2----
2024-03-04 01:42 amWSW 2.9 4.1----30.11- 49.1 55.4----
2024-03-04 01:36 am W 1.9 2.9----30.11- 49.5 55.4----
2024-03-04 01:30 amWSW 2.9 2.9----30.11- 49.5 55.4----
2024-03-04 01:24 am W 1.9 4.1----30.11- 49.6 55.4----
2024-03-04 01:18 amWNW 2.9 5.1----30.10- 49.3 55.4----
2024-03-04 01:12 amWNW 1.9 2.9----30.10- 49.1 55.4----
2024-03-04 01:06 am W 2.9 2.9----30.10- 48.7 55.4----
2024-03-04 01:00 amWNW 2.9 5.1----30.10+0.03 48.6 55.4----
2024-03-04 12:54 am W 2.9 4.1----30.10- 48.9 55.4----
2024-03-04 12:48 am W 1.9 4.1----30.10- 48.9 55.4----
2024-03-04 12:42 am W 2.9 2.9----30.10- 48.7 55.4----
2024-03-04 12:36 am W 1.9 2.9----30.10- 48.9 55.2----
2024-03-04 12:30 amWSW 2.9 2.9----30.10- 48.7 55.2----
2024-03-04 12:24 am W 1.0 2.9----30.10- 48.7 55.2----
2024-03-04 12:18 am SW 1.9 2.9----30.10- 48.6 55.4----
2024-03-04 12:12 amWSW 1.9 2.9----30.10- 48.4 55.4----
2024-03-04 12:06 am SW 1.9 2.9----30.10- 48.2 55.4----
2024-03-04 12:00 am SW 1.9 2.9----30.10+0.04 48.6 55.2----
2024-03-03 11:54 pm SW 1.9 2.9----30.10- 48.4 55.2----
2024-03-03 11:48 pmWSW 2.9 4.1----30.09- 48.4 55.2----
2024-03-03 11:42 pm SW 1.9 4.1----30.09- 48.4 55.2----
2024-03-03 11:36 pmWSW 2.9 5.1----30.09- 48.7 55.0----
2024-03-03 11:30 pmWSW 2.9 4.1----30.09- 48.7 55.0----
2024-03-03 11:24 pmWSW 1.9 5.1----30.09- 48.9 55.0----
2024-03-03 11:18 pmWSW 2.9 4.1----30.09- 48.9 55.0----
2024-03-03 11:12 pm W 2.9 4.1----30.09- 49.5 55.0----
2024-03-03 11:06 pm W 2.9 5.1----30.09- 49.8 55.0----
2024-03-03 11:00 pm NW 5.1 6.0----30.09+0.05 50.4 55.0----
2024-03-03 10:54 pm NW 5.1 6.0----30.09- 50.5 54.9----
2024-03-03 10:48 pm W 4.1 6.0----30.09- 50.5 54.9----
2024-03-03 10:42 pm W 4.1 6.0----30.09- 50.4 54.9----
2024-03-03 10:36 pm W 5.1 7.0----30.08- 50.7 54.9----
2024-03-03 10:30 pm W 5.1 7.0----30.08- 50.7 54.9----
2024-03-03 10:24 pm W 5.1 8.0----30.08- 50.5 54.9----
2024-03-03 10:18 pm W 7.0 8.0----30.08- 50.5 54.9----
2024-03-03 10:12 pm W 5.1 8.0----30.07- 50.5 54.9----
2024-03-03 10:06 pm W 5.1 8.0----30.07- 50.7 54.9----
2024-03-03 10:00 pm W 7.0 8.9----30.07+0.04 50.9 54.9----
2024-03-03 09:54 pm W 6.0 8.9----30.07- 50.9 54.9----
2024-03-03 09:48 pm W 7.0 8.9----30.07- 51.1 54.9----
2024-03-03 09:42 pm W 5.1 8.0----30.07- 50.9 54.9----
2024-03-03 09:36 pmWNW 5.1 9.9----30.06- 50.9 54.9----
2024-03-03 09:30 pm W 8.9 12.0----30.06- 51.3 54.7----
2024-03-03 09:24 pm W 7.0 8.9----30.06- 51.1 54.7----
2024-03-03 09:18 pm W 7.0 9.9----30.06- 51.1 54.7----
2024-03-03 09:12 pm W 6.0 8.0----30.06- 51.1 54.7----
2024-03-03 09:06 pm W 5.1 6.0----30.06- 50.9 54.7----
2024-03-03 09:00 pm W 5.1 8.0----30.06+0.05 50.9 54.7----
2024-03-03 08:54 pmWNW 5.1 7.0----30.06- 50.9 54.7----
2024-03-03 08:48 pm W 4.1 7.0----30.05- 50.9 54.7----
2024-03-03 08:42 pm W 5.1 8.9----30.05- 51.1 54.7----
2024-03-03 08:36 pmWNW 6.0 8.0----30.05- 51.3 54.7----
2024-03-03 08:30 pm W 7.0 8.9----30.05- 51.3 54.9----
2024-03-03 08:24 pmWNW 6.0 8.9----30.04- 51.3 54.9----
2024-03-03 08:18 pm W 4.1 7.0----30.04- 51.3 54.9----
2024-03-03 08:12 pm W 5.1 7.0----30.04- 50.9 55.2----
2024-03-03 08:06 pmWNW 5.1 8.0----30.04- 51.1 55.2----
2024-03-03 08:00 pmWNW 5.1 8.9----30.04+0.05 51.1 55.2----
2024-03-03 07:54 pmWNW 6.0 8.9----30.04- 51.1 55.2----
2024-03-03 07:48 pmWNW 6.0 8.9----30.03- 51.1 55.4----
2024-03-03 07:42 pmWNW 6.0 11.1----30.03- 51.1 55.4----
2024-03-03 07:36 pmWNW 7.0 9.9----30.03- 51.3 55.4----
2024-03-03 07:30 pmWNW 6.0 8.9----30.03- 51.3 55.2----
2024-03-03 07:24 pmWNW 8.0 12.0----30.03- 51.3 55.2----
2024-03-03 07:18 pmWNW 5.1 8.0----30.03- 51.1 55.4----
2024-03-03 07:12 pm W 7.0 8.0----30.03- 50.9 55.4----
2024-03-03 07:06 pm W 7.0 8.0----30.03- 50.9 55.4----
2024-03-03 07:00 pm W 6.0 8.0----30.03+0.04 50.9 55.4----
2024-03-03 06:54 pm W 8.0 11.1----30.03- 50.9 55.4----
2024-03-03 06:48 pm W 8.0 9.9----30.02- 50.9 55.4----
2024-03-03 06:42 pm W 8.0 13.0----30.02- 50.9 55.4----
2024-03-03 06:36 pm W 8.9 12.0----30.02- 51.1 55.2----
2024-03-03 06:30 pm W 8.0 11.1----30.01- 51.4 55.2----
2024-03-03 06:24 pm W 8.0 11.1----30.01- 51.4 55.2----
2024-03-03 06:18 pm W 7.0 11.1----30.01- 51.6 55.2----
2024-03-03 06:12 pm W 8.9 13.0----30.01- 51.6 55.0----
2024-03-03 06:06 pm W 5.1 8.9----30.00- 51.6 55.0----
2024-03-03 06:00 pm W 7.0 14.0----30.00+0.00 51.8 55.0----
2024-03-03 05:54 pm W 9.9 12.0----30.00- 51.8 55.0----
2024-03-03 05:48 pmWNW 6.0 8.9----30.00- 51.6 55.0----
2024-03-03 05:42 pm W 6.0 11.1----30.00- 51.6 55.0----
2024-03-03 05:36 pm W 7.0 11.1----30.00- 51.8 55.0----
2024-03-03 05:30 pm W 7.0 9.9----29.99- 51.8 55.0----
2024-03-03 05:24 pm W 8.0 11.1----29.99- 52.0 55.0----
2024-03-03 05:18 pm W 7.0 9.9----29.99- 52.0 55.0----
2024-03-03 05:12 pm W 8.0 8.9----29.99- 51.6 55.0----
2024-03-03 05:06 pm W 6.0 8.0----29.99- 51.6 55.0----
2024-03-03 05:00 pm-------29.99+0.00 51.4 55.0----
2024-03-03 04:54 pm-------29.99- 51.4 55.2----
2024-03-03 04:48 pm W 8.0 12.0----29.99- 51.4 55.2----
2024-03-03 04:42 pm W 7.0 14.0----29.99- 51.4 55.2----
2024-03-03 04:36 pm W 5.1 11.1----29.98- 51.4 55.0----
2024-03-03 04:30 pmWSW 4.1 8.9----29.98-- 55.0----
2024-03-03 04:24 pm W 2.9 8.9----29.98-- 55.0----
2024-03-03 04:18 pm W 4.1 7.0----29.98- 51.3 55.0----
2024-03-03 04:12 pmSSW 2.9 6.0----29.99- 51.1 55.0----
2024-03-03 04:06 pm E 1.9 6.0----29.99- 50.9 55.2----
2024-03-03 04:00 pmSSW 4.1 8.9----29.99-0.02 50.5 55.2----
2024-03-03 03:54 pm S 5.1 8.0----29.99- 50.7 55.2----
2024-03-03 03:48 pm S 5.1 8.9----29.99- 50.0 55.2----
2024-03-03 03:42 pmSSW 4.1 6.0----29.99- 49.5 55.2----
2024-03-03 03:36 pm W 2.9 7.0----30.00- 48.9 55.2----
2024-03-03 03:30 pm W 5.1 8.9----30.00- 48.7 55.2----
2024-03-03 03:24 pm W 6.0 8.0----30.00- 48.9 55.2----
2024-03-03 03:18 pm W 4.1 7.0----30.00- 49.3 55.2----
2024-03-03 03:12 pm W 2.9 7.0----30.00- 49.6 55.2----
2024-03-03 03:06 pmWSW 2.9 8.9----30.00- 49.3 55.0----
2024-03-03 03:00 pm W 5.1 8.0----30.00-0.03 49.6 55.0----
2024-03-03 02:54 pm SW 4.1 8.0----30.00- 49.8 55.0----
2024-03-03 02:48 pmSSW 2.9 8.0----30.00- 50.4 55.0----
2024-03-03 02:42 pm S 5.1 11.1----30.00- 51.1 55.0----
2024-03-03 02:36 pm S 5.1 9.9----30.00- 51.1 55.0----
2024-03-03 02:24 pm S 8.0 14.0----30.00- 50.7 55.0----
2024-03-03 02:18 pm S 6.0 9.9----30.00- 50.9 55.0----
2024-03-03 02:12 pmSSW 7.0 12.0----30.00- 51.6 54.9----
2024-03-03 02:06 pm S 6.0 12.0----30.00- 52.0 55.0----
2024-03-03 02:00 pm S 5.1 9.9----30.00-0.04 53.2 55.0----
2024-03-03 01:54 pmSSW 6.0 12.0----30.00- 53.2 55.0----
2024-03-03 01:48 pm S 8.0 13.0----30.00- 53.2 55.0----
2024-03-03 01:42 pm S 7.0 13.0----30.00- 52.9 55.0----
2024-03-03 01:36 pm S 7.0 14.0----30.00- 52.7 55.0----
2024-03-03 01:30 pm S 8.0 13.0----30.00-- 55.0----
2024-03-03 01:24 pm S 5.1 12.0----30.00-- 55.0----
2024-03-03 01:18 pm S 8.0 13.0----30.01- 52.0 55.2----
2024-03-03 01:12 pm S 7.0 14.0----30.01- 52.2 55.4----
2024-03-03 01:06 pm S 7.0 15.9----30.01- 52.2 55.2----
2024-03-03 01:00 pm S 8.0 14.0----30.01-0.01- 55.4----
2024-03-03 12:54 pm S 7.0 12.0----30.01-- 55.6----
2024-03-03 12:48 pm S 5.1 13.0----30.02- 52.0 55.8----
2024-03-03 12:42 pm S 8.0 9.9----30.02- 52.7 55.8----
2024-03-03 12:36 pmSSE 8.0 12.0----30.02- 52.5 55.8----
2024-03-03 12:30 pm--------- 52.7 55.8----
2024-03-03 12:24 pm--------- 52.9 55.8----
2024-03-03 12:18 pm S 8.0 13.0----30.02- 52.7 55.8----
2024-03-03 12:12 pm S 9.9 13.0----30.02- 52.9 55.9----
2024-03-03 12:06 pmSSE 8.9 13.0----30.02- 52.7 55.8----
2024-03-03 12:00 pm S 7.0 9.9----30.03+0.02 53.1-----
2024-03-03 11:54 am S 7.0 11.1----30.03- 53.1-----
2024-03-03 11:48 am S 7.0 11.1----30.03- 52.9 55.6----
2024-03-03 11:42 amSSE 8.9 13.0----30.02- 52.7 55.6----
2024-03-03 11:36 amSSE 8.9 12.0----30.02- 52.5 55.6----
2024-03-03 11:30 amSSE 8.9 13.0----30.03-- 55.6----
2024-03-03 11:24 am S 8.0 12.0----30.03-- 55.6----
2024-03-03 11:18 am S 7.0 11.1----30.03-------
2024-03-03 11:12 am S 8.0 13.0----30.03-------
2024-03-03 11:06 am S 8.0 12.0----30.03-------
2024-03-03 11:00 am S 7.0 13.0----30.03+0.04- 55.4----
2024-03-03 10:54 am S 8.0 12.0----30.03-- 55.4----
2024-03-03 10:48 am--------- 52.5-----
2024-03-03 10:42 am--------- 52.5-----
2024-03-03 10:36 am--------- 52.5-----
2024-03-03 10:30 amSSE 7.0 9.9----30.03- 52.3 55.4----
2024-03-03 10:24 am S 8.0 11.1----30.03- 52.5 55.4----
2024-03-03 10:18 am S 8.0 11.1----30.02- 52.5 55.4----
2024-03-03 10:12 am S 6.0 11.1----30.03- 52.5 55.4----
2024-03-03 10:06 am S 6.0 12.0----30.03- 52.3 55.4----
2024-03-03 10:00 am S 6.0 12.0----30.02+0.06 52.5 55.4----
2024-03-03 09:54 am S 5.1 9.9----30.02- 52.5 55.2----
2024-03-03 09:48 am S 4.1 8.0----30.02- 52.7 55.4----
2024-03-03 09:42 amSSW 5.1 8.9----30.02- 52.3 55.2----
2024-03-03 09:36 amSSW 4.1 7.0----30.01- 52.2 55.4----
2024-03-03 09:30 amSSW 5.1 7.0----30.01- 52.3 55.4----
2024-03-03 09:24 am S 5.1 9.9----30.01- 52.0 55.4----
2024-03-03 09:18 am S 4.1 7.0----30.01-- 55.4----
2024-03-03 09:12 amSSW 5.1 8.0----30.01-- 55.4----
2024-03-03 09:06 amSSW 4.1 8.9----30.01-- 55.4----
2024-03-03 09:00 amSSW 5.1 8.0----30.01-- 55.0----
2024-03-03 08:54 am S 2.9 5.1----30.00-- 54.9----
2024-03-03 08:48 am S 1.9 4.1----30.00- 50.7 54.9----
2024-03-03 08:42 am S 1.9 4.1----30.00- 50.9 55.0----
2024-03-03 08:36 am S 2.9 5.1----30.00- 50.7 55.0----
2024-03-03 08:30 am S 4.1 6.0----30.00- 50.2 54.9----
2024-03-03 08:24 amSSE 4.1 7.0----29.99- 50.0 54.9----
2024-03-03 08:18 amSSE 5.1 8.0----29.99- 49.6 54.9----
2024-03-03 08:12 am S 5.1 7.0----29.99- 49.5 54.9----
2024-03-03 08:06 am SE 2.9 6.0----29.99- 49.6 54.7----
2024-03-03 08:00 amSSE 4.1 6.0----29.99+0.06 49.3 54.7----
2024-03-03 07:54 amSSE 5.1 8.0----29.98- 49.1 54.7----
2024-03-03 07:48 am S 4.1 6.0----29.98- 49.6 54.7----
2024-03-03 07:42 amSSE 1.0 4.1----29.98- 48.6 54.7----
2024-03-03 07:36 amWSW 1.9 6.0----29.98- 48.4 54.9----
2024-03-03 07:30 amSSW 5.1 12.0----29.98- 48.7 54.9----
2024-03-03 07:24 am S 5.1 8.9----29.98- 49.3 54.9----
2024-03-03 07:18 amSSW 1.9 4.1----29.98- 48.4 54.7----
2024-03-03 07:12 am W 1.9 2.9----29.97- 48.0 54.9----
2024-03-03 07:06 amWNW 1.9 2.9----29.97- 48.0 54.9----
2024-03-03 07:00 am W 1.9 1.9----29.97+0.04 48.2 54.7----
2024-03-03 06:54 am W 1.9 4.1----29.97- 48.2 54.7----
2024-03-03 06:48 am W 1.9 4.1----29.96- 48.4 54.7----
2024-03-03 06:42 am W 1.9 4.1----29.96- 48.6 54.7----
2024-03-03 06:36 am W 2.9 4.1----29.96- 48.7 54.7----
2024-03-03 06:30 amWNW 1.9 4.1----29.96-------
2024-03-03 06:24 am W 1.9 2.9----29.95-------
2024-03-03 06:18 amWSW 1.0 4.1----29.95-- 54.7----
2024-03-03 06:12 amWSW 1.9 2.9----29.95-- 54.7----
2024-03-03 06:06 amSSW 1.0 2.9----29.95-- 54.7----
2024-03-03 06:00 am SW 1.9 2.9------ 48.9 54.5----
2024-03-03 05:54 amWSW 1.9 2.9------ 48.7 54.5----